C/2012 F3 ( PanSTARRS )

Japanese version
Home page
Updated on October 8, 2017

---------------------------------------------------------------------

* Profile

Discovery Date March 16, 2012
Magnitude 21.0 mag
Discoverer Pan-STARRS 1 telescope (Haleakala)

* Pictures

* Orbital Elements

Epoch 2015 Apr. 8.0 TT = JDT 2457120.5
T 2015 Apr. 6.67471 TT                                  MPCW
q   3.4569674            (2000.0)            P               Q
z  -0.0005284      Peri.  104.01926     -0.01881159     +0.99845753
 +/-0.0000002      Node   164.61410     -0.97640537     -0.00710451
e   1.0018268      Incl.   11.35474     -0.21512478     -0.05506432
From 1496 observations 2012 Jan. 19-2016 Nov. 5, mean residual 0".6.

* Finding Charts

* Magnitudes Graph

        m1 = 6.5 + 5 log d + 9.0 log r(t + 40)

---------------------------------------------------------------------

The orbital elements are published on M.P.E.C. 2016-V116.
The charts are made with StellaNavigator Ver.8 (AstroArts).
The magnitudes graphs are made with Comet for Windows.

---------------------------------------------------------------------

Copyright(C) Seiichi Yoshida (comet@aerith.net). All rights reserved.